sat.trackr.live / text

‹ back to catalog

HULIANWANG DIGUI-68

NORAD 65228 · 2025-178A

PAYLOAD ACTIVE UNKNOWN

§ Identity

Operator
Country
PRC
Launch date
2025-08-17
Launch site
TAISC
Launch vehicle
Mass (kg)
RCS (m²)

External: N2YO · Heavens-Above · Gunter

§ Orbital elements

Epoch: 2026-09-20T22:12:43.530048Z

Period
108.73 min
Inclination
86.5035°
Eccentricity
0.0001610
Mean motion
13.24413465 rev/d
Perigee alt
1,166.7 km
Apogee alt
1,169.1 km
Semi-major
7,546.0 km
B*
4.7857e-5
RAAN
341.2332°
Arg perigee
107.0248°
Mean anomaly
253.1063°
Rev number
5,298

§ Raw data

HULIANWANG DIGUI-681 65228U 25178A   26263.92550382  .00000035  00000+0  47857-4 0  99912 65228  86.5035 341.2332 0001610 107.0248 253.1063 13.24413465 52987

JSON: /api/v1/satellites/65228 · /tle

For live sub-satellite position, see the globe view (requires WebGL).

§ Visibility from observer

Set your observer location to see the next 7 days of passes ≥ 10°. The values pass through the URL so the page stays shareable.

No JS? Fill the form by hand. The geolocation button needs JavaScript.